Regional Weather Roundup
Issued by NWS

Home | Current Version | Previous Version | Text Only | Print | Product List | Glossary Off
Versions: 1 2 3 4 5 6 7 8 9 10 11 12 13 14 15 16 17 18 19 20 21 22 23 24 25 26 27 28 29 30 31 32 33 34 35 36 37 38 39 40 41 42 43 44 45 46 47 48 49 50

000
ASUS43 KLOT 230108
RWRIL

ILLINOIS REGIONAL WEATHER ROUNDUP
NATIONAL WEATHER SERVICE CHICAGO/ROMEOVILLE IL
800 PM CDT FRI MAY 22 2015

NOTE: "FAIR" INDICATES FEW OR NO CLOUDS BELOW 12,000 FEET WITH NO
SIGNIFICANT WEATHER AND/OR OBSTRUCTIONS TO VISIBILITY.

* THESE STATIONS ARE NOT UNDER NWS QUALITY CONTROL. THEY ALSO MAY NOT
  REPORT WEATHER SUCH AS PRECIPITATION OR FOG.

ILZ001-002-007-009-015-016-024-230200-
NORTHWEST ILLINOIS

CITY           SKY/WX    TMP DP  RH WIND       PRES   REMARKS
MOLINE         CLOUDY    68  48  48 CALM      30.19R
STERLING*      MOCLDY    70  43  37 N5        30.21R
SAVANNA*       CLOUDY    69  43  38 E3        30.20S
$$

ILZ003-004-008-010-011-017-018-230200-
NORTH CENTRAL ILLINOIS

CITY           SKY/WX    TMP DP  RH WIND       PRES   REMARKS
ROCKFORD       CLOUDY    64  37  36 E10       30.25R
FREEPORT*      CLOUDY    67  41  38 CALM      30.23R
ROCHELLE*      MOCLDY    64  37  37 E13       30.23R
DE KALB*       CLOUDY    59  33  37 E9        30.24S
PERU*          MOCLDY    72  42  34 E3        30.20S
$$

ILZ005-006-012>014-019>023-230200-
NORTHEAST ILLINOIS

CITY           SKY/WX    TMP DP  RH WIND       PRES   REMARKS
CHICAGO-OHARE  CLOUDY    55  27  34 E8        30.26R
CHICAGO-MIDWAY CLOUDY    56  30  37 E12       30.27R
AURORA         CLOUDY    61  29  29 E10       30.24R
LANSING*       CLOUDY    54  32  43 NE5       30.26S
JOLIET*        CLOUDY    60  35  38 E8        30.24S
WAUKEGAN       MOCLDY    48  31  51 E7        30.27R
DUPAGE AIRPORT CLOUDY    58  29  33 E10       30.24R
KANKAKEE*      MOCLDY    63  37  38 NE8       30.24R
WHEELING       CLOUDY    53  26  35 E3        30.29R
MORRIS*        MOCLDY    62  35  37 E8        30.22R
ROMEOVILLE*    CLOUDY    58  31  36 E12       30.24S
NORTHERLY ISL    N/A     50  34  54 NE8         N/A
$$

LMZ740>746-230200-
SOUTHERN LAKE MICHIGAN

STATION/POSITION SKY/WX   TEMP    WIND        PRES    VSBY  WAVE
                          AIR SEA DIR/SP/G                  HT/PER
                          (F)     (DEG/KT/KT) (MB)    (MI)  (FT/S)
SOUTHERN BUOY              42 38  140/  6/  6 1026.7R         0
HARRISON CRIB              48      90/  9/ 10   N/A
BURNHAM HARBOR             50      40/  6/  8   N/A
CALUMET HARBOR             51      50/  9/ 10   N/A
BURNS HARBOR               53      70/ 14/ 16 1025.1F
MICHIGAN CITY              52      30/ 11/ 12   N/A
MICHIGAN CITY 6N           53 51   80/ 10/ 14   N/A           2/ 4
ST. JOSEPH                 54 54  100/  6/  8   N/A           2/ 3
$$

ILZ025>027-034>036-040-047-049-050-058-095>099-230200-
WEST-CENTRAL ILLINOIS

CITY           SKY/WX    TMP DP  RH WIND       PRES   REMARKS
QUINCY         CLOUDY    66  53  63 SW6       30.23R
GALESBURG*     CLOUDY    67  44  42 CALM      30.21R
MACOMB*        CLOUDY    69  44  40 SW5       30.24R
JACKSONVILLE*  CLOUDY    72  53  51 SW6       30.23R
PITTSFIELD*    CLOUDY    69  54  58 SW6       30.25R
$$

ILZ028>032-037-038-041>044-048-051>054-059>061-230200-
CENTRAL ILLINOIS

CITY           SKY/WX    TMP DP  RH WIND       PRES   REMARKS
PONTIAC        MOCLDY    70  40  33 E15       30.22R
BLOOMINGTON    MOCLDY    72  42  33 CALM      30.22R
DECATUR        CLOUDY    72  43  35 SW5       30.22R
PEORIA         CLOUDY    73  44  35 SW6       30.21R
LACON*         CLOUDY    67  43  41 S5        30.19R
LINCOLN*       CLOUDY    73  40  29 CALM      30.19R
SPRINGFIELD    CLOUDY    73  45  36 SW7       30.22R
TAYLORVILLE    CLOUDY    68  48  49 SW5       30.23R
$$

ILZ033-039-045-046-055>057-062-063-230200-
EAST-CENTRAL ILLINOIS

CITY           SKY/WX    TMP DP  RH WIND       PRES   REMARKS
CHAMPAIGN      MOCLDY    72  41  32 W5        30.21R
DANVILLE*      MOCLDY    70  45  39 CALM      30.19R
RANTOUL*       MOCLDY    76  40  27 CALM      30.21R
MATTOON        MOCLDY    70  45  40 SW7       30.21R
PARIS*         MOCLDY    70  47  44 NE5       30.22R
$$

ILZ079-100>102-230200-
SOUTHWEST ILLINOIS

CITY           SKY/WX    TMP DP  RH WIND       PRES   REMARKS
BELLEVILLE     CLOUDY    69  54  57 NW1       30.22R
CAHOKIA*       CLOUDY    70  50  49 W3        30.23R
SPARTA*        CLOUDY    68  53  58 S3        30.26R
$$

ILZ064>066-069>071-074>076-080>082-084>086-088>090-092>094-230200-
SOUTH-CENTRAL ILLINOIS

CITY           SKY/WX    TMP DP  RH WIND       PRES   REMARKS
CARBONDALE     CLOUDY    65  55  70 SW5       30.25S
CAIRO*         CLOUDY    67  58  73 CALM      30.24F
EFFINGHAM*     CLOUDY    68  50  51 S3        30.25R
MARION         CLOUDY    66  57  72 CALM      30.26R
MT. VERNON     CLOUDY    64  54  68 S3        30.26R
CENTRALIA*     CLOUDY    65  55  69 SW3       30.25R
SALEM*         CLOUDY    70  55  59 CALM      30.24R
METROPOLIS*    CLOUDY    67  58  73 CALM      30.24S
$$

ILZ067-068-072-073-078-083-087-091-230200-
SOUTHEAST ILLINOIS

CITY           SKY/WX    TMP DP  RH WIND       PRES   REMARKS
LAWRENCEVILLE  CLOUDY    68  51  54 SW7       30.24R
FLORA*         CLOUDY    68  55  63 SW3       30.25R
FAIRFIELD*     CLOUDY    69  55  60 CALM      30.24R
HARRISBURG*    CLOUDY    67  55  63 SW5       30.27R
ROBINSON*      CLOUDY    69  50  51 SW6       30.23R
CARMI*         CLOUDY    68  49  50 SW5       30.25R
$$

ABBREVIATIONS USED IN REMARKS
   TC - TEMPERATURE IN CELSIUS
  WCI - WIND CHILL INDEX
   HX - HEAT INDEX
  VSB - VISIBILITY
$$




USA.gov is the U.S. government's official web portal to all federal, state and local government web resources and services.